• In Sweden
  • List of Countries
  • For 7 days
  • Water Temperature
  • Satellite Maps
  • Weather Map
  • Weather Widgets
  • user-avatar
    Login

    Hourly Weather Fedosovo

    Today, 14 August, Tuesday

    Time Temperature Precipitation Wind Pressure Humidity
    00:00 +13°C° 0 mm 1 mps 743 mmHg 96%
    01:00 +13°C° 0 mm 1 mps 743 mmHg 96%
    02:00 +13°C° 0 mm 1 mps 743 mmHg 96%
    03:00 +13°C° 0 mm 1 mps 743 mmHg 96%
    04:00 +13°C° 0 mm 1 mps 743 mmHg 95%
    05:00 +12°C° 0 mm 0 mps 743 mmHg 95%
    06:00 +14°C° 0 mm 1 mps 743 mmHg 91%
    07:00 +16°C° 0 mm 1 mps 744 mmHg 86%
    08:00 +19°C° 0 mm 1 mps 744 mmHg 82%
    09:00 +20°C° 0 mm 1 mps 744 mmHg 75%
    10:00 +22°C° 0 mm 1 mps 744 mmHg 68%
    11:00 +24°C° 0 mm 2 mps 744 mmHg 61%
    12:00 +24°C° 0.1 mm 2 mps 744 mmHg 58%
    13:00 +25°C° 0.1 mm 1 mps 744 mmHg 56%
    14:00 +26°C° 0.1 mm 1 mps 743 mmHg 53%
    15:00 +26°C° 0 mm 1 mps 743 mmHg 56%
    16:00 +25°C° 0 mm 1 mps 743 mmHg 58%
    17:00 +25°C° 0 mm 1 mps 743 mmHg 61%
    18:00 +23°C° 0 mm 1 mps 743 mmHg 68%
    19:00 +21°C° 0 mm 1 mps 743 mmHg 76%
    20:00 +20°C° 0 mm 1 mps 742 mmHg 83%
    21:00 +19°C° 0 mm 1 mps 742 mmHg 85%
    22:00 +18°C° 0 mm 2 mps 742 mmHg 87%
    23:00 +17°C° 0 mm 2 mps 742 mmHg 88%

    Tomorrow, 15 August, Wednesday

    Time Temperature Precipitation Wind Pressure Humidity
    00:00 +17°C° 0.1 mm 2 mps 742 mmHg 89%
    01:00 +17°C° 0.1 mm 2 mps 741 mmHg 90%
    02:00 +17°C° 0.1 mm 3 mps 741 mmHg 91%
    03:00 +17°C° 0.4 mm 3 mps 741 mmHg 92%
    04:00 +18°C° 0.4 mm 3 mps 740 mmHg 94%
    05:00 +18°C° 0.4 mm 3 mps 740 mmHg 96%
    06:00 +19°C° 0.4 mm 3 mps 740 mmHg 93%
    07:00 +20°C° 0.4 mm 4 mps 740 mmHg 90%
    08:00 +21°C° 0.4 mm 4 mps 740 mmHg 88%
    09:00 +22°C° 0.7 mm 4 mps 740 mmHg 87%
    10:00 +22°C° 0.7 mm 4 mps 740 mmHg 87%
    11:00 +22°C° 0.7 mm 4 mps 740 mmHg 86%
    12:00 +23°C° 0.9 mm 4 mps 740 mmHg 83%
    13:00 +23°C° 0.9 mm 4 mps 740 mmHg 81%
    14:00 +25°C° 0.9 mm 4 mps 740 mmHg 78%
    15:00 +23°C° 0.4 mm 4 mps 740 mmHg 78%
    16:00 +24°C° 0.4 mm 3 mps 740 mmHg 78%
    17:00 +24°C° 0.4 mm 3 mps 740 mmHg 78%
    18:00 +22°C° 0.1 mm 3 mps 741 mmHg 83%
    19:00 +20°C° 0.1 mm 2 mps 741 mmHg 88%
    20:00 +19°C° 0.1 mm 2 mps 741 mmHg 94%
    21:00 +18°C° 0 mm 2 mps 741 mmHg 94%
    22:00 +18°C° 0 mm 2 mps 741 mmHg 95%
    23:00 +18°C° 0 mm 1 mps 741 mmHg 95%

    Day after tomorrow, 16 August, Thursday

    Time Temperature Precipitation Wind Pressure Humidity
    00:00 +18°C° 0 mm 1 mps 741 mmHg 95%
    01:00 +16°C° 0 mm 1 mps 742 mmHg 96%
    02:00 +16°C° 0 mm 1 mps 742 mmHg 96%
    03:00 +16°C° 0 mm 1 mps 742 mmHg 96%
    04:00 +16°C° 0 mm 1 mps 742 mmHg 97%
    05:00 +15°C° 0 mm 1 mps 742 mmHg 97%
    06:00 +18°C° 0 mm 1 mps 743 mmHg 93%
    07:00 +19°C° 0 mm 1 mps 743 mmHg 89%
    08:00 +21°C° 0 mm 1 mps 743 mmHg 84%
    09:00 +22°C° 0.2 mm 1 mps 744 mmHg 80%
    10:00 +23°C° 0.2 mm 2 mps 744 mmHg 76%
    11:00 +24°C° 0.2 mm 2 mps 744 mmHg 72%
    12:00 +24°C° 0.7 mm 2 mps 744 mmHg 73%
    13:00 +24°C° 0.7 mm 2 mps 744 mmHg 74%
    14:00 +22°C° 0.7 mm 3 mps 744 mmHg 75%
    15:00 +22°C° 0.1 mm 3 mps 744 mmHg 74%
    16:00 +22°C° 0.1 mm 3 mps 745 mmHg 74%
    17:00 +21°C° 0.1 mm 3 mps 745 mmHg 74%
    18:00 +20°C° 0 mm 2 mps 745 mmHg 79%
    19:00 +18°C° 0 mm 2 mps 745 mmHg 84%
    20:00 +17°C° 0 mm 2 mps 746 mmHg 90%
    21:00 +16°C° 0 mm 2 mps 746 mmHg 91%
    22:00 +15°C° 0 mm 2 mps 746 mmHg 92%
    23:00 +15°C° 0 mm 2 mps 746 mmHg 93%

    17 August, Friday

    Time Temperature Precipitation Wind Pressure Humidity
    00:00 +14°C° 0 mm 2 mps 747 mmHg 93%
    01:00 +14°C° 0 mm 2 mps 747 mmHg 93%
    02:00 +14°C° 0 mm 2 mps 747 mmHg 93%
    03:00 +13°C° 0 mm 2 mps 747 mmHg 93%
    04:00 +13°C° 0 mm 2 mps 747 mmHg 93%
    05:00 +13°C° 0 mm 2 mps 747 mmHg 93%
    06:00 +15°C° 0 mm 2 mps 748 mmHg 86%
    07:00 +17°C° 0 mm 3 mps 748 mmHg 79%
    08:00 +18°C° 0 mm 3 mps 748 mmHg 72%
    09:00 +20°C° 0 mm 3 mps 748 mmHg 66%
    10:00 +21°C° 0 mm 3 mps 748 mmHg 61%
    11:00 +24°C° 0 mm 3 mps 748 mmHg 55%
    12:00 +24°C° 0 mm 3 mps 748 mmHg 54%
    13:00 +25°C° 0 mm 3 mps 748 mmHg 53%
    14:00 +25°C° 0 mm 3 mps 748 mmHg 51%
    15:00 +25°C° 0 mm 3 mps 748 mmHg 54%
    16:00 +25°C° 0 mm 3 mps 748 mmHg 57%
    17:00 +25°C° 0 mm 2 mps 748 mmHg 60%
    18:00 +21°C° 0 mm 2 mps 748 mmHg 67%
    19:00 +19°C° 0 mm 2 mps 748 mmHg 74%
    20:00 +17°C° 0 mm 2 mps 748 mmHg 81%
    21:00 +17°C° 0 mm 2 mps 748 mmHg 83%
    22:00 +16°C° 0 mm 2 mps 748 mmHg 84%
    23:00 +15°C° 0 mm 2 mps 748 mmHg 86%

    18 August, Saturday

    Time Temperature Precipitation Wind Pressure Humidity
    00:00 +15°C° 0 mm 2 mps 748 mmHg 86%
    01:00 +14°C° 0 mm 2 mps 748 mmHg 86%
    02:00 +14°C° 0 mm 2 mps 748 mmHg 87%
    03:00 +14°C° 0 mm 2 mps 748 mmHg 87%
    04:00 +13°C° 0 mm 2 mps 748 mmHg 88%
    05:00 +13°C° 0 mm 2 mps 748 mmHg 89%
    06:00 +15°C° 0 mm 2 mps 748 mmHg 82%
    07:00 +17°C° 0 mm 2 mps 748 mmHg 76%
    08:00 +19°C° 0 mm 2 mps 748 mmHg 69%
    09:00 +21°C° 0 mm 3 mps 748 mmHg 64%
    10:00 +24°C° 0 mm 3 mps 748 mmHg 60%
    11:00 +25°C° 0 mm 3 mps 748 mmHg 55%
    12:00 +26°C° 0 mm 4 mps 748 mmHg 53%
    13:00 +26°C° 0 mm 4 mps 748 mmHg 52%
    14:00 +27°C° 0 mm 4 mps 747 mmHg 51%
    15:00 +26°C° 0 mm 3 mps 747 mmHg 54%
    16:00 +26°C° 0 mm 3 mps 747 mmHg 57%
    17:00 +26°C° 0 mm 3 mps 747 mmHg 59%
    18:00 +24°C° 0 mm 3 mps 747 mmHg 66%
    19:00 +21°C° 0 mm 3 mps 747 mmHg 72%
    20:00 +19°C° 0 mm 3 mps 747 mmHg 78%
    21:00 +18°C° 0 mm 3 mps 747 mmHg 77%
    22:00 +18°C° 0 mm 3 mps 747 mmHg 76%
    23:00 +18°C° 0 mm 3 mps 746 mmHg 75%

    19 August, Sunday

    Time Temperature Precipitation Wind Pressure Humidity
    00:00 +17°C° 0 mm 3 mps 746 mmHg 76%
    01:00 +17°C° 0 mm 3 mps 746 mmHg 77%
    02:00 +17°C° 0 mm 3 mps 746 mmHg 78%
    03:00 +16°C° 0.3 mm 3 mps 746 mmHg 81%
    04:00 +16°C° 0.3 mm 3 mps 746 mmHg 84%
    05:00 +16°C° 0.3 mm 3 mps 746 mmHg 86%
    06:00 +17°C° 0.1 mm 3 mps 745 mmHg 85%
    07:00 +18°C° 0.1 mm 3 mps 745 mmHg 84%
    08:00 +19°C° 0.1 mm 3 mps 745 mmHg 83%
    09:00 +20°C° 0.1 mm 3 mps 745 mmHg 82%
    10:00 +21°C° 0.1 mm 3 mps 745 mmHg 81%
    11:00 +22°C° 0.1 mm 3 mps 745 mmHg 80%
    12:00 +22°C° 0.2 mm 3 mps 744 mmHg 79%
    13:00 +24°C° 0.2 mm 3 mps 744 mmHg 78%
    14:00 +24°C° 0.2 mm 3 mps 744 mmHg 78%
    15:00 +25°C° 0.2 mm 2 mps 744 mmHg 77%
    16:00 +25°C° 0.2 mm 2 mps 744 mmHg 77%
    17:00 +25°C° 0.2 mm 2 mps 744 mmHg 76%
    18:00 +23°C° 0.4 mm 2 mps 744 mmHg 82%
    19:00 +21°C° 0.4 mm 2 mps 744 mmHg 88%
    20:00 +19°C° 0.4 mm 2 mps 744 mmHg 94%
    21:00 +20°C° 0.1 mm 1 mps 744 mmHg 94%
    22:00 +19°C° 0.1 mm 1 mps 744 mmHg 95%
    23:00 +18°C° 0.1 mm 1 mps 744 mmHg 95%
    Show more